When you browse on this site, cookies collect data to enhance your experience and personalize the content and advertising you see.
Visit our Privacy Policy to learn more. By continuing to use the site, you agree to this use of cookies and data.
  • In Slovakia
  • List of Countries
  • For 7 days
  • Water Temperature
  • Satellite Maps
  • Weather Map
  • Weather Widgets
  • user-avatar
    Login

    Hourly Weather Ziolkowo

    Today, 19 February, Tuesday

    Time Temperature Precipitation Wind Pressure Humidity
    00:00 +1°C° 0 mm 3 mps 749 mmHg 94%
    01:00 +1°C° 0 mm 3 mps 748 mmHg 93%
    02:00 0°C° 0 mm 4 mps 748 mmHg 93%
    03:00 -1°C° 0 mm 4 mps 747 mmHg 94%
    04:00 -1°C° 0 mm 4 mps 747 mmHg 94%
    05:00 -1°C° 0 mm 4 mps 746 mmHg 94%
    06:00 -1°C° 0 mm 4 mps 746 mmHg 94%
    07:00 -1°C° 0 mm 4 mps 745 mmHg 93%
    08:00 -1°C° 0 mm 4 mps 745 mmHg 93%
    09:00 0°C° 0 mm 4 mps 744 mmHg 87%
    10:00 +1°C° 0 mm 5 mps 744 mmHg 81%
    11:00 +2°C° 0 mm 5 mps 743 mmHg 75%
    12:00 +3°C° 0 mm 5 mps 743 mmHg 70%
    13:00 +5°C° 0 mm 6 mps 742 mmHg 65%
    14:00 +7°C° 0 mm 6 mps 742 mmHg 60%
    15:00 +5°C° 0 mm 6 mps 742 mmHg 62%
    16:00 +6°C° 0 mm 5 mps 741 mmHg 63%
    17:00 +6°C° 0 mm 5 mps 741 mmHg 65%
    18:00 +5°C° 0 mm 5 mps 741 mmHg 70%
    19:00 +5°C° 0 mm 5 mps 741 mmHg 75%
    20:00 +4°C° 0 mm 4 mps 741 mmHg 80%
    21:00 +4°C° 0.4 mm 4 mps 741 mmHg 82%
    22:00 +4°C° 0.4 mm 4 mps 741 mmHg 84%
    23:00 +4°C° 0.4 mm 4 mps 741 mmHg 86%

    Tomorrow, 20 February, Wednesday

    Time Temperature Precipitation Wind Pressure Humidity
    00:00 +3°C° 0 mm 4 mps 741 mmHg 88%
    01:00 +3°C° 0 mm 4 mps 741 mmHg 89%
    02:00 +1°C° 0 mm 4 mps 741 mmHg 90%
    03:00 +1°C° 0.1 mm 5 mps 740 mmHg 89%
    04:00 +2°C° 0.1 mm 6 mps 740 mmHg 87%
    05:00 +2°C° 0.1 mm 6 mps 740 mmHg 86%
    06:00 +2°C° 0.1 mm 6 mps 740 mmHg 85%
    07:00 +1°C° 0.1 mm 6 mps 740 mmHg 84%
    08:00 +1°C° 0.1 mm 6 mps 741 mmHg 83%
    09:00 +2°C° 0.1 mm 6 mps 741 mmHg 81%
    10:00 +2°C° 0.1 mm 7 mps 741 mmHg 78%
    11:00 +1°C° 0.1 mm 8 mps 741 mmHg 75%
    12:00 +1°C° 0 mm 8 mps 741 mmHg 75%
    13:00 +1°C° 0 mm 8 mps 742 mmHg 75%
    14:00 +1°C° 0 mm 8 mps 742 mmHg 75%
    15:00 +1°C° 0 mm 8 mps 742 mmHg 74%
    16:00 +1°C° 0 mm 8 mps 742 mmHg 73%
    17:00 +1°C° 0 mm 8 mps 743 mmHg 72%
    18:00 0°C° 0 mm 8 mps 743 mmHg 72%
    19:00 -1°C° 0 mm 7 mps 744 mmHg 72%
    20:00 -3°C° 0 mm 6 mps 745 mmHg 71%
    21:00 -3°C° 0 mm 6 mps 745 mmHg 71%
    22:00 -2°C° 0 mm 5 mps 746 mmHg 70%
    23:00 -3°C° 0 mm 4 mps 746 mmHg 70%

    Day after tomorrow, 21 February, Thursday

    Time Temperature Precipitation Wind Pressure Humidity
    00:00 -3°C° 0 mm 4 mps 746 mmHg 69%
    01:00 -3°C° 0 mm 4 mps 747 mmHg 68%
    02:00 -3°C° 0 mm 4 mps 747 mmHg 67%
    03:00 -2°C° 0 mm 3 mps 747 mmHg 68%
    04:00 -2°C° 0 mm 3 mps 747 mmHg 68%
    05:00 -2°C° 0 mm 3 mps 747 mmHg 68%
    06:00 -2°C° 0 mm 3 mps 747 mmHg 69%
    07:00 -2°C° 0 mm 2 mps 747 mmHg 70%
    08:00 -2°C° 0 mm 2 mps 748 mmHg 71%
    09:00 -1°C° 0 mm 2 mps 747 mmHg 68%
    10:00 -1°C° 0 mm 2 mps 747 mmHg 64%
    11:00 +1°C° 0 mm 2 mps 747 mmHg 61%
    12:00 +1°C° 0 mm 2 mps 747 mmHg 61%
    13:00 +2°C° 0 mm 1 mps 747 mmHg 61%
    14:00 +2°C° 0 mm 1 mps 747 mmHg 61%
    15:00 +2°C° 0 mm 1 mps 747 mmHg 62%
    16:00 +2°C° 0 mm 1 mps 747 mmHg 64%
    17:00 +2°C° 0 mm 1 mps 747 mmHg 65%
    18:00 -1°C° 0 mm 2 mps 747 mmHg 64%
    19:00 -1°C° 0 mm 3 mps 748 mmHg 63%
    20:00 -2°C° 0 mm 3 mps 748 mmHg 62%
    21:00 -2°C° 0.1 mm 3 mps 749 mmHg 62%
    22:00 -2°C° 0.1 mm 3 mps 749 mmHg 62%
    23:00 -4°C° 0.1 mm 4 mps 750 mmHg 61%

    22 February, Friday

    Time Temperature Precipitation Wind Pressure Humidity
    00:00 -4°C° 0 mm 4 mps 750 mmHg 61%
    01:00 -4°C° 0 mm 4 mps 751 mmHg 60%
    02:00 -4°C° 0 mm 4 mps 752 mmHg 59%
    03:00 -5°C° 0 mm 4 mps 753 mmHg 61%
    04:00 -5°C° 0 mm 4 mps 753 mmHg 62%
    05:00 -7°C° 0 mm 5 mps 754 mmHg 64%
    06:00 -7°C° 0 mm 5 mps 755 mmHg 63%
    07:00 -9°C° 0 mm 6 mps 756 mmHg 62%
    08:00 -9°C° 0 mm 6 mps 757 mmHg 62%
    09:00 -9°C° 0 mm 6 mps 758 mmHg 57%
    10:00 -9°C° 0 mm 6 mps 759 mmHg 52%
    11:00 -8°C° 0 mm 6 mps 760 mmHg 48%
    12:00 -8°C° 0 mm 6 mps 760 mmHg 44%
    13:00 -6°C° 0 mm 5 mps 761 mmHg 41%
    14:00 -5°C° 0 mm 5 mps 761 mmHg 37%
    15:00 -5°C° 0 mm 5 mps 762 mmHg 37%
    16:00 -5°C° 0 mm 4 mps 762 mmHg 37%
    17:00 -5°C° 0 mm 4 mps 762 mmHg 37%
    18:00 -5°C° 0 mm 4 mps 763 mmHg 38%
    19:00 -5°C° 0 mm 4 mps 763 mmHg 40%
    20:00 -6°C° 0 mm 3 mps 764 mmHg 42%
    21:00 -6°C° 0 mm 3 mps 764 mmHg 42%
    22:00 -6°C° 0 mm 3 mps 764 mmHg 42%
    23:00 -6°C° 0 mm 3 mps 764 mmHg 42%

    23 February, Saturday

    Time Temperature Precipitation Wind Pressure Humidity
    00:00 -6°C° 0 mm 3 mps 764 mmHg 44%
    01:00 -6°C° 0 mm 3 mps 764 mmHg 46%
    02:00 -6°C° 0 mm 3 mps 764 mmHg 47%
    03:00 -6°C° 0 mm 2 mps 764 mmHg 48%
    04:00 -6°C° 0 mm 2 mps 764 mmHg 49%
    05:00 -6°C° 0 mm 2 mps 763 mmHg 50%
    06:00 -6°C° 0 mm 2 mps 763 mmHg 52%
    07:00 -6°C° 0 mm 2 mps 763 mmHg 53%
    08:00 -6°C° 0 mm 2 mps 763 mmHg 55%
    09:00 -5°C° 0 mm 2 mps 763 mmHg 53%
    10:00 -4°C° 0 mm 2 mps 763 mmHg 51%
    11:00 -5°C° 0 mm 3 mps 763 mmHg 49%
    12:00 -4°C° 0.1 mm 3 mps 762 mmHg 55%
    13:00 -4°C° 0.1 mm 3 mps 762 mmHg 61%
    14:00 -4°C° 0.1 mm 4 mps 761 mmHg 66%
    15:00 -4°C° 0.1 mm 4 mps 761 mmHg 70%
    16:00 -4°C° 0.1 mm 4 mps 760 mmHg 73%
    17:00 -5°C° 0.1 mm 5 mps 760 mmHg 77%
    18:00 -3°C° 0.1 mm 4 mps 759 mmHg 79%
    19:00 -3°C° 0.1 mm 4 mps 759 mmHg 81%
    20:00 -2°C° 0.1 mm 3 mps 759 mmHg 83%
    21:00 -2°C° 0 mm 3 mps 759 mmHg 87%
    22:00 -1°C° 0 mm 3 mps 759 mmHg 91%
    23:00 -1°C° 0 mm 3 mps 759 mmHg 95%

    24 February, Sunday

    Time Temperature Precipitation Wind Pressure Humidity
    00:00 -1°C° 0 mm 2 mps 759 mmHg 96%
    01:00 -1°C° 0 mm 2 mps 759 mmHg 96%
    02:00 -1°C° 0 mm 2 mps 759 mmHg 97%
    03:00 -1°C° 0 mm 2 mps 760 mmHg 97%
    04:00 -1°C° 0 mm 2 mps 760 mmHg 97%
    05:00 -1°C° 0 mm 2 mps 760 mmHg 97%
    06:00 -1°C° 0 mm 2 mps 760 mmHg 97%
    07:00 +1°C° 0 mm 1 mps 760 mmHg 97%
    08:00 +1°C° 0 mm 1 mps 760 mmHg 97%
    09:00 +2°C° 0 mm 1 mps 760 mmHg 94%
    10:00 +2°C° 0 mm 1 mps 761 mmHg 92%
    11:00 +2°C° 0 mm 0 mps 761 mmHg 90%
    12:00 +3°C° 0 mm 1 mps 761 mmHg 88%
    13:00 +4°C° 0 mm 1 mps 761 mmHg 86%
    14:00 +4°C° 0 mm 1 mps 760 mmHg 85%
    15:00 +4°C° 0 mm 1 mps 760 mmHg 87%
    16:00 +3°C° 0 mm 2 mps 760 mmHg 90%
    17:00 +2°C° 0 mm 2 mps 759 mmHg 92%
    18:00 +2°C° 0.1 mm 2 mps 759 mmHg 94%
    19:00 +2°C° 0.1 mm 2 mps 759 mmHg 95%
    20:00 +1°C° 0.1 mm 2 mps 758 mmHg 97%
    21:00 0°C° 0.1 mm 3 mps 758 mmHg 96%
    22:00 +1°C° 0.1 mm 3 mps 757 mmHg 96%
    23:00 +1°C° 0.1 mm 3 mps 757 mmHg 96%
    Show more